segment_id,date_local,uptime,ped_lft,ped_rgt,ped_total,bike_lft,bike_rgt,bike_total,car_lft,car_rgt,car_total,heavy_lft,heavy_rgt,heavy_total,v85,car_speed0,car_speed10,car_speed20,car_speed30,car_speed40,car_speed50,car_speed60,car_speed70
100024661,2021-11-01 00:00,1.0,,,,23,30,53,,,,,,,
100024661,2021-11-01 01:00,1.0,,,,9,22,31,,,,,,,
100024661,2021-11-01 02:00,1.0,,,,14,6,20,,,,,,,
100024661,2021-11-01 03:00,1.0,,,,6,4,10,,,,,,,
100024661,2021-11-01 04:00,1.0,,,,4,16,20,,,,,,,
100024661,2021-11-01 05:00,1.0,,,,16,27,43,,,,,,,
100024661,2021-11-01 06:00,1.0,,,,44,91,135,,,,,,,
100024661,2021-11-01 07:00,1.0,,,,172,314,486,,,,,,,
100024661,2021-11-01 08:00,1.0,,,,377,657,1034,,,,,,,
100024661,2021-11-01 09:00,1.0,,,,326,458,784,,,,,,,
100024661,2021-11-01 10:00,1.0,,,,183,227,410,,,,,,,
100024661,2021-11-01 11:00,1.0,,,,197,166,363,,,,,,,
100024661,2021-11-01 12:00,1.0,,,,183,164,347,,,,,,,
100024661,2021-11-01 13:00,1.0,,,,213,216,429,,,,,,,
100024661,2021-11-01 14:00,1.0,,,,228,177,405,,,,,,,
100024661,2021-11-01 15:00,1.0,,,,277,242,519,,,,,,,
100024661,2021-11-01 16:00,1.0,,,,387,225,612,,,,,,,
100024661,2021-11-01 17:00,1.0,,,,448,308,756,,,,,,,
100024661,2021-11-01 18:00,1.0,,,,533,370,903,,,,,,,
100024661,2021-11-01 19:00,1.0,,,,308,238,546,,,,,,,
100024661,2021-11-01 20:00,1.0,,,,182,155,337,,,,,,,
100024661,2021-11-01 21:00,1.0,,,,133,120,253,,,,,,,
100024661,2021-11-01 22:00,1.0,,,,91,83,174,,,,,,,
100024661,2021-11-01 23:00,1.0,,,,44,47,91,,,,,,,
100024661,2021-11-02 00:00,1.0,,,,14,28,42,,,,,,,
100024661,2021-11-02 01:00,1.0,,,,8,11,19,,,,,,,
100024661,2021-11-02 02:00,1.0,,,,4,5,9,,,,,,,
100024661,2021-11-02 03:00,1.0,,,,2,3,5,,,,,,,
100024661,2021-11-02 04:00,1.0,,,,7,7,14,,,,,,,
100024661,2021-11-02 05:00,1.0,,,,12,28,40,,,,,,,
100024661,2021-11-02 06:00,1.0,,,,50,72,122,,,,,,,
100024661,2021-11-02 07:00,1.0,,,,187,283,470,,,,,,,
100024661,2021-11-02 08:00,1.0,,,,407,731,1138,,,,,,,
100024661,2021-11-02 09:00,1.0,,,,362,499,861,,,,,,,
100024661,2021-11-02 10:00,1.0,,,,189,200,389,,,,,,,
100024661,2021-11-02 11:00,1.0,,,,165,173,338,,,,,,,
100024661,2021-11-02 12:00,1.0,,,,232,178,410,,,,,,,
100024661,2021-11-02 13:00,1.0,,,,257,215,472,,,,,,,
100024661,2021-11-02 14:00,1.0,,,,265,229,494,,,,,,,
100024661,2021-11-02 15:00,1.0,,,,356,276,632,,,,,,,
100024661,2021-11-02 16:00,1.0,,,,424,300,724,,,,,,,
100024661,2021-11-02 17:00,1.0,,,,530,365,895,,,,,,,
100024661,2021-11-02 18:00,1.0,,,,664,435,1099,,,,,,,
100024661,2021-11-02 19:00,1.0,,,,346,347,693,,,,,,,
100024661,2021-11-02 20:00,1.0,,,,218,187,405,,,,,,,
100024661,2021-11-02 21:00,1.0,,,,142,153,295,,,,,,,
100024661,2021-11-02 22:00,1.0,,,,167,127,294,,,,,,,
100024661,2021-11-02 23:00,1.0,,,,74,78,152,,,,,,,
100024661,2021-11-03 00:00,1.0,,,,29,42,71,,,,,,,
100024661,2021-11-03 01:00,1.0,,,,13,20,33,,,,,,,
100024661,2021-11-03 02:00,1.0,,,,10,6,16,,,,,,,
100024661,2021-11-03 03:00,1.0,,,,5,2,7,,,,,,,
100024661,2021-11-03 04:00,1.0,,,,10,11,21,,,,,,,
100024661,2021-11-03 05:00,1.0,,,,12,23,35,,,,,,,
100024661,2021-11-03 06:00,1.0,,,,58,70,128,,,,,,,
100024661,2021-11-03 07:00,1.0,,,,170,286,456,,,,,,,
100024661,2021-11-03 08:00,1.0,,,,428,731,1159,,,,,,,
100024661,2021-11-03 09:00,1.0,,,,259,510,769,,,,,,,
100024661,2021-11-03 10:00,1.0,,,,215,243,458,,,,,,,
100024661,2021-11-03 11:00,1.0,,,,207,213,420,,,,,,,
100024661,2021-11-03 12:00,1.0,,,,242,226,468,,,,,,,
100024661,2021-11-03 13:00,1.0,,,,245,225,470,,,,,,,
100024661,2021-11-03 14:00,1.0,,,,317,300,617,,,,,,,
100024661,2021-11-03 15:00,1.0,,,,403,303,706,,,,,,,
100024661,2021-11-03 16:00,1.0,,,,418,311,729,,,,,,,
100024661,2021-11-03 17:00,1.0,,,,552,345,897,,,,,,,
100024661,2021-11-03 18:00,1.0,,,,624,453,1077,,,,,,,
100024661,2021-11-03 19:00,1.0,,,,398,350,748,,,,,,,
100024661,2021-11-03 20:00,1.0,,,,230,197,427,,,,,,,
100024661,2021-11-03 21:00,1.0,,,,172,143,315,,,,,,,
100024661,2021-11-03 22:00,1.0,,,,146,135,281,,,,,,,
100024661,2021-11-03 23:00,1.0,,,,85,101,186,,,,,,,
100024661,2021-11-04 00:00,1.0,,,,53,43,96,,,,,,,
100024661,2021-11-04 01:00,1.0,,,,20,26,46,,,,,,,
100024661,2021-11-04 02:00,1.0,,,,11,6,17,,,,,,,
100024661,2021-11-04 03:00,1.0,,,,6,5,11,,,,,,,
100024661,2021-11-04 04:00,1.0,,,,8,9,17,,,,,,,
100024661,2021-11-04 05:00,1.0,,,,12,23,35,,,,,,,
100024661,2021-11-04 06:00,1.0,,,,41,66,107,,,,,,,
100024661,2021-11-04 07:00,1.0,,,,134,224,358,,,,,,,
100024661,2021-11-04 08:00,1.0,,,,305,516,821,,,,,,,
100024661,2021-11-04 09:00,1.0,,,,211,263,474,,,,,,,
100024661,2021-11-04 10:00,1.0,,,,78,93,171,,,,,,,
100024661,2021-11-04 11:00,1.0,,,,71,70,141,,,,,,,
100024661,2021-11-04 12:00,1.0,,,,67,58,125,,,,,,,
100024661,2021-11-04 13:00,1.0,,,,99,66,165,,,,,,,
100024661,2021-11-04 14:00,1.0,,,,133,77,210,,,,,,,
100024661,2021-11-04 15:00,1.0,,,,178,119,297,,,,,,,
100024661,2021-11-04 16:00,1.0,,,,195,115,310,,,,,,,
100024661,2021-11-04 17:00,1.0,,,,262,147,409,,,,,,,
100024661,2021-11-04 18:00,1.0,,,,244,135,379,,,,,,,
100024661,2021-11-04 19:00,1.0,,,,141,114,255,,,,,,,
100024661,2021-11-04 20:00,1.0,,,,80,50,130,,,,,,,
100024661,2021-11-04 21:00,1.0,,,,59,44,103,,,,,,,
100024661,2021-11-04 22:00,1.0,,,,44,40,84,,,,,,,
100024661,2021-11-04 23:00,1.0,,,,13,19,32,,,,,,,
100024661,2021-11-05 00:00,1.0,,,,12,17,29,,,,,,,
100024661,2021-11-05 01:00,1.0,,,,10,10,20,,,,,,,
100024661,2021-11-05 02:00,1.0,,,,7,3,10,,,,,,,
100024661,2021-11-05 03:00,1.0,,,,6,3,9,,,,,,,
100024661,2021-11-05 04:00,1.0,,,,3,9,12,,,,,,,
100024661,2021-11-05 05:00,1.0,,,,8,13,21,,,,,,,
100024661,2021-11-05 06:00,1.0,,,,29,42,71,,,,,,,
100024661,2021-11-05 07:00,1.0,,,,103,143,246,,,,,,,
100024661,2021-11-05 08:00,1.0,,,,195,383,578,,,,,,,
100024661,2021-11-05 09:00,1.0,,,,214,290,504,,,,,,,
100024661,2021-11-05 10:00,1.0,,,,158,177,335,,,,,,,
100024661,2021-11-05 11:00,1.0,,,,166,126,292,,,,,,,
100024661,2021-11-05 12:00,1.0,,,,204,189,393,,,,,,,
100024661,2021-11-05 13:00,1.0,,,,237,201,438,,,,,,,
100024661,2021-11-05 14:00,1.0,,,,247,231,478,,,,,,,
100024661,2021-11-05 15:00,1.0,,,,320,224,544,,,,,,,
100024661,2021-11-05 16:00,1.0,,,,349,256,605,,,,,,,
100024661,2021-11-05 17:00,1.0,,,,368,263,631,,,,,,,
100024661,2021-11-05 18:00,1.0,,,,362,278,640,,,,,,,
100024661,2021-11-05 19:00,1.0,,,,244,268,512,,,,,,,
100024661,2021-11-05 20:00,1.0,,,,163,141,304,,,,,,,
100024661,2021-11-05 21:00,1.0,,,,99,143,242,,,,,,,
100024661,2021-11-05 22:00,1.0,,,,86,96,182,,,,,,,
100024661,2021-11-05 23:00,1.0,,,,89,81,170,,,,,,,
100024661,2021-11-06 00:00,1.0,,,,83,69,152,,,,,,,
100024661,2021-11-06 01:00,1.0,,,,43,55,98,,,,,,,
100024661,2021-11-06 02:00,1.0,,,,49,30,79,,,,,,,
100024661,2021-11-06 03:00,1.0,,,,32,19,51,,,,,,,
100024661,2021-11-06 04:00,1.0,,,,25,13,38,,,,,,,
100024661,2021-11-06 05:00,1.0,,,,17,16,33,,,,,,,
100024661,2021-11-06 06:00,1.0,,,,18,17,35,,,,,,,
100024661,2021-11-06 07:00,1.0,,,,25,21,46,,,,,,,
100024661,2021-11-06 08:00,1.0,,,,63,46,109,,,,,,,
100024661,2021-11-06 09:00,1.0,,,,101,91,192,,,,,,,
100024661,2021-11-06 10:00,1.0,,,,148,118,266,,,,,,,
100024661,2021-11-06 11:00,1.0,,,,155,148,303,,,,,,,
100024661,2021-11-06 12:00,1.0,,,,197,158,355,,,,,,,
100024661,2021-11-06 13:00,1.0,,,,253,221,474,,,,,,,
100024661,2021-11-06 14:00,1.0,,,,269,214,483,,,,,,,
100024661,2021-11-06 15:00,1.0,,,,242,197,439,,,,,,,
100024661,2021-11-06 16:00,1.0,,,,232,266,498,,,,,,,
100024661,2021-11-06 17:00,1.0,,,,215,211,426,,,,,,,
100024661,2021-11-06 18:00,1.0,,,,216,216,432,,,,,,,
100024661,2021-11-06 19:00,1.0,,,,162,191,353,,,,,,,
100024661,2021-11-06 20:00,1.0,,,,125,161,286,,,,,,,
100024661,2021-11-06 21:00,1.0,,,,112,114,226,,,,,,,
100024661,2021-11-06 22:00,1.0,,,,79,99,178,,,,,,,
100024661,2021-11-06 23:00,1.0,,,,85,110,195,,,,,,,
100024661,2021-11-07 00:00,1.0,,,,73,79,152,,,,,,,
100024661,2021-11-07 01:00,1.0,,,,54,65,119,,,,,,,
100024661,2021-11-07 02:00,1.0,,,,48,35,83,,,,,,,
100024661,2021-11-07 03:00,1.0,,,,27,21,48,,,,,,,
100024661,2021-11-07 04:00,1.0,,,,28,9,37,,,,,,,
100024661,2021-11-07 05:00,1.0,,,,9,7,16,,,,,,,
100024661,2021-11-07 06:00,1.0,,,,7,14,21,,,,,,,
100024661,2021-11-07 07:00,1.0,,,,15,17,32,,,,,,,
100024661,2021-11-07 08:00,1.0,,,,24,28,52,,,,,,,
100024661,2021-11-07 09:00,1.0,,,,38,52,90,,,,,,,
100024661,2021-11-07 10:00,1.0,,,,66,49,115,,,,,,,
100024661,2021-11-07 11:00,1.0,,,,73,95,168,,,,,,,
100024661,2021-11-07 12:00,1.0,,,,46,60,106,,,,,,,
100024661,2021-11-07 13:00,1.0,,,,87,97,184,,,,,,,
100024661,2021-11-07 14:00,1.0,,,,106,141,247,,,,,,,
100024661,2021-11-07 15:00,1.0,,,,104,121,225,,,,,,,
100024661,2021-11-07 16:00,1.0,,,,122,113,235,,,,,,,
100024661,2021-11-07 17:00,1.0,,,,126,106,232,,,,,,,
100024661,2021-11-07 18:00,1.0,,,,122,88,210,,,,,,,
100024661,2021-11-07 19:00,1.0,,,,111,80,191,,,,,,,
100024661,2021-11-07 20:00,1.0,,,,70,56,126,,,,,,,
100024661,2021-11-07 21:00,1.0,,,,46,51,97,,,,,,,
100024661,2021-11-07 22:00,1.0,,,,50,28,78,,,,,,,
100024661,2021-11-07 23:00,1.0,,,,33,27,60,,,,,,,
100024661,2021-11-08 00:00,1.0,,,,9,24,33,,,,,,,
100024661,2021-11-08 01:00,1.0,,,,9,9,18,,,,,,,
100024661,2021-11-08 02:00,1.0,,,,3,4,7,,,,,,,
100024661,2021-11-08 03:00,1.0,,,,5,1,6,,,,,,,
100024661,2021-11-08 04:00,1.0,,,,5,8,13,,,,,,,
100024661,2021-11-08 05:00,1.0,,,,10,18,28,,,,,,,
100024661,2021-11-08 06:00,1.0,,,,45,63,108,,,,,,,
100024661,2021-11-08 07:00,1.0,,,,120,214,334,,,,,,,
100024661,2021-11-08 08:00,1.0,,,,299,567,866,,,,,,,
100024661,2021-11-08 09:00,1.0,,,,285,399,684,,,,,,,
100024661,2021-11-08 10:00,1.0,,,,141,180,321,,,,,,,
100024661,2021-11-08 11:00,1.0,,,,144,145,289,,,,,,,
100024661,2021-11-08 12:00,1.0,,,,191,151,342,,,,,,,
100024661,2021-11-08 13:00,1.0,,,,208,180,388,,,,,,,
100024661,2021-11-08 14:00,1.0,,,,236,191,427,,,,,,,
100024661,2021-11-08 15:00,1.0,,,,306,221,527,,,,,,,
100024661,2021-11-08 16:00,1.0,,,,362,225,587,,,,,,,
100024661,2021-11-08 17:00,1.0,,,,421,290,711,,,,,,,
100024661,2021-11-08 18:00,1.0,,,,484,368,852,,,,,,,
100024661,2021-11-08 19:00,1.0,,,,335,267,602,,,,,,,
100024661,2021-11-08 20:00,1.0,,,,174,158,332,,,,,,,
100024661,2021-11-08 21:00,1.0,,,,136,105,241,,,,,,,
100024661,2021-11-08 22:00,1.0,,,,113,79,192,,,,,,,
100024661,2021-11-08 23:00,1.0,,,,60,52,112,,,,,,,
100024661,2021-11-09 00:00,1.0,,,,22,26,48,,,,,,,
100024661,2021-11-09 01:00,1.0,,,,14,12,26,,,,,,,
100024661,2021-11-09 02:00,1.0,,,,7,5,12,,,,,,,
100024661,2021-11-09 03:00,1.0,,,,4,3,7,,,,,,,
100024661,2021-11-09 04:00,1.0,,,,5,5,10,,,,,,,
100024661,2021-11-09 05:00,1.0,,,,11,22,33,,,,,,,
100024661,2021-11-09 06:00,1.0,,,,51,88,139,,,,,,,
100024661,2021-11-09 07:00,1.0,,,,160,247,407,,,,,,,
100024661,2021-11-09 08:00,1.0,,,,392,649,1041,,,,,,,
100024661,2021-11-09 09:00,1.0,,,,365,477,842,,,,,,,
100024661,2021-11-09 10:00,1.0,,,,184,232,416,,,,,,,
100024661,2021-11-09 11:00,1.0,,,,187,190,377,,,,,,,
100024661,2021-11-09 12:00,1.0,,,,224,177,401,,,,,,,
100024661,2021-11-09 13:00,1.0,,,,224,191,415,,,,,,,
100024661,2021-11-09 14:00,1.0,,,,262,229,491,,,,,,,
100024661,2021-11-09 15:00,1.0,,,,338,260,598,,,,,,,
100024661,2021-11-09 16:00,1.0,,,,383,324,707,,,,,,,
100024661,2021-11-09 17:00,1.0,,,,460,335,795,,,,,,,
100024661,2021-11-09 18:00,1.0,,,,575,418,993,,,,,,,
100024661,2021-11-09 19:00,1.0,,,,388,320,708,,,,,,,
100024661,2021-11-09 20:00,1.0,,,,197,176,373,,,,,,,
100024661,2021-11-09 21:00,1.0,,,,141,112,253,,,,,,,
100024661,2021-11-09 22:00,1.0,,,,121,121,242,,,,,,,
100024661,2021-11-09 23:00,1.0,,,,83,91,174,,,,,,,
100024661,2021-11-10 00:00,1.0,,,,38,37,75,,,,,,,
100024661,2021-11-10 01:00,1.0,,,,16,11,27,,,,,,,
100024661,2021-11-10 02:00,1.0,,,,9,6,15,,,,,,,
100024661,2021-11-10 03:00,1.0,,,,5,5,10,,,,,,,
100024661,2021-11-10 04:00,1.0,,,,9,6,15,,,,,,,
100024661,2021-11-10 05:00,1.0,,,,10,31,41,,,,,,,
100024661,2021-11-10 06:00,1.0,,,,65,83,148,,,,,,,
100024661,2021-11-10 07:00,1.0,,,,166,272,438,,,,,,,
100024661,2021-11-10 08:00,1.0,,,,376,676,1052,,,,,,,
100024661,2021-11-10 09:00,1.0,,,,374,499,873,,,,,,,
100024661,2021-11-10 10:00,1.0,,,,192,232,424,,,,,,,
100024661,2021-11-10 11:00,1.0,,,,216,182,398,,,,,,,
100024661,2021-11-10 12:00,1.0,,,,236,209,445,,,,,,,
100024661,2021-11-10 13:00,1.0,,,,266,261,527,,,,,,,
100024661,2021-11-10 14:00,1.0,,,,281,249,530,,,,,,,
100024661,2021-11-10 15:00,1.0,,,,381,266,647,,,,,,,
100024661,2021-11-10 16:00,1.0,,,,423,303,726,,,,,,,
100024661,2021-11-10 17:00,1.0,,,,508,336,844,,,,,,,
100024661,2021-11-10 18:00,1.0,,,,563,395,958,,,,,,,
100024661,2021-11-10 19:00,1.0,,,,375,330,705,,,,,,,
100024661,2021-11-10 20:00,1.0,,,,223,192,415,,,,,,,
100024661,2021-11-10 21:00,1.0,,,,182,138,320,,,,,,,
100024661,2021-11-10 22:00,1.0,,,,153,145,298,,,,,,,
100024661,2021-11-10 23:00,1.0,,,,88,101,189,,,,,,,
100024661,2021-11-11 00:00,1.0,,,,52,34,86,,,,,,,
100024661,2021-11-11 01:00,1.0,,,,17,21,38,,,,,,,
100024661,2021-11-11 02:00,1.0,,,,14,9,23,,,,,,,
100024661,2021-11-11 03:00,1.0,,,,16,7,23,,,,,,,
100024661,2021-11-11 04:00,1.0,,,,11,9,20,,,,,,,
100024661,2021-11-11 05:00,1.0,,,,13,27,40,,,,,,,
100024661,2021-11-11 06:00,1.0,,,,49,80,129,,,,,,,
100024661,2021-11-11 07:00,1.0,,,,131,225,356,,,,,,,
100024661,2021-11-11 08:00,1.0,,,,357,587,944,,,,,,,
100024661,2021-11-11 09:00,1.0,,,,332,469,801,,,,,,,
100024661,2021-11-11 10:00,1.0,,,,198,221,419,,,,,,,
100024661,2021-11-11 11:00,1.0,,,,186,192,378,,,,,,,
100024661,2021-11-11 12:00,1.0,,,,251,202,453,,,,,,,
100024661,2021-11-11 13:00,1.0,,,,246,214,460,,,,,,,
100024661,2021-11-11 14:00,1.0,,,,290,214,504,,,,,,,
100024661,2021-11-11 15:00,1.0,,,,344,287,631,,,,,,,
100024661,2021-11-11 16:00,1.0,,,,390,281,671,,,,,,,
100024661,2021-11-11 17:00,1.0,,,,444,335,779,,,,,,,
100024661,2021-11-11 18:00,1.0,,,,518,376,894,,,,,,,
100024661,2021-11-11 19:00,1.0,,,,393,296,689,,,,,,,
100024661,2021-11-11 20:00,1.0,,,,164,138,302,,,,,,,
100024661,2021-11-11 21:00,1.0,,,,146,138,284,,,,,,,
100024661,2021-11-11 22:00,1.0,,,,107,111,218,,,,,,,
100024661,2021-11-11 23:00,1.0,,,,107,99,206,,,,,,,
100024661,2021-11-12 00:00,1.0,,,,52,49,101,,,,,,,
100024661,2021-11-12 01:00,1.0,,,,18,30,48,,,,,,,
100024661,2021-11-12 02:00,1.0,,,,9,13,22,,,,,,,
100024661,2021-11-12 03:00,1.0,,,,10,5,15,,,,,,,
100024661,2021-11-12 04:00,1.0,,,,5,7,12,,,,,,,
100024661,2021-11-12 05:00,1.0,,,,16,24,40,,,,,,,
100024661,2021-11-12 06:00,1.0,,,,38,71,109,,,,,,,
100024661,2021-11-12 07:00,1.0,,,,142,190,332,,,,,,,
100024661,2021-11-12 08:00,1.0,,,,223,398,621,,,,,,,
100024661,2021-11-12 09:00,1.0,,,,256,364,620,,,,,,,
100024661,2021-11-12 10:00,1.0,,,,179,183,362,,,,,,,
100024661,2021-11-12 11:00,1.0,,,,202,171,373,,,,,,,
100024661,2021-11-12 12:00,1.0,,,,216,186,402,,,,,,,
100024661,2021-11-12 13:00,1.0,,,,234,225,459,,,,,,,
100024661,2021-11-12 14:00,1.0,,,,251,219,470,,,,,,,
100024661,2021-11-12 15:00,1.0,,,,344,242,586,,,,,,,
100024661,2021-11-12 16:00,1.0,,,,352,269,621,,,,,,,
100024661,2021-11-12 17:00,1.0,,,,358,284,642,,,,,,,
100024661,2021-11-12 18:00,1.0,,,,373,331,704,,,,,,,
100024661,2021-11-12 19:00,1.0,,,,295,268,563,,,,,,,
100024661,2021-11-12 20:00,1.0,,,,178,161,339,,,,,,,
100024661,2021-11-12 21:00,1.0,,,,128,114,242,,,,,,,
100024661,2021-11-12 22:00,1.0,,,,107,149,256,,,,,,,
100024661,2021-11-12 23:00,1.0,,,,93,82,175,,,,,,,
100024661,2021-11-13 00:00,1.0,,,,67,68,135,,,,,,,
100024661,2021-11-13 01:00,1.0,,,,47,54,101,,,,,,,
100024661,2021-11-13 02:00,1.0,,,,43,46,89,,,,,,,
100024661,2021-11-13 03:00,1.0,,,,23,21,44,,,,,,,
100024661,2021-11-13 04:00,1.0,,,,17,11,28,,,,,,,
100024661,2021-11-13 05:00,1.0,,,,17,11,28,,,,,,,
100024661,2021-11-13 06:00,1.0,,,,28,21,49,,,,,,,
100024661,2021-11-13 07:00,1.0,,,,17,24,41,,,,,,,
100024661,2021-11-13 08:00,1.0,,,,47,37,84,,,,,,,
100024661,2021-11-13 09:00,1.0,,,,113,83,196,,,,,,,
100024661,2021-11-13 10:00,1.0,,,,132,107,239,,,,,,,
100024661,2021-11-13 11:00,1.0,,,,143,133,276,,,,,,,
100024661,2021-11-13 12:00,1.0,,,,202,165,367,,,,,,,
100024661,2021-11-13 13:00,1.0,,,,230,245,475,,,,,,,
100024661,2021-11-13 14:00,1.0,,,,235,244,479,,,,,,,
100024661,2021-11-13 15:00,1.0,,,,258,255,513,,,,,,,
100024661,2021-11-13 16:00,1.0,,,,248,260,508,,,,,,,
100024661,2021-11-13 17:00,1.0,,,,263,193,456,,,,,,,
100024661,2021-11-13 18:00,1.0,,,,207,218,425,,,,,,,
100024661,2021-11-13 19:00,1.0,,,,167,157,324,,,,,,,
100024661,2021-11-13 20:00,1.0,,,,126,141,267,,,,,,,
100024661,2021-11-13 21:00,1.0,,,,74,106,180,,,,,,,
100024661,2021-11-13 22:00,1.0,,,,71,89,160,,,,,,,
100024661,2021-11-13 23:00,1.0,,,,69,90,159,,,,,,,
100024661,2021-11-14 00:00,1.0,,,,62,70,132,,,,,,,
100024661,2021-11-14 01:00,1.0,,,,57,56,113,,,,,,,
100024661,2021-11-14 02:00,1.0,,,,34,32,66,,,,,,,
100024661,2021-11-14 03:00,1.0,,,,35,30,65,,,,,,,
100024661,2021-11-14 04:00,1.0,,,,23,18,41,,,,,,,
100024661,2021-11-14 05:00,1.0,,,,13,12,25,,,,,,,
100024661,2021-11-14 06:00,1.0,,,,24,14,38,,,,,,,
100024661,2021-11-14 07:00,1.0,,,,21,14,35,,,,,,,
100024661,2021-11-14 08:00,1.0,,,,33,22,55,,,,,,,
100024661,2021-11-14 09:00,1.0,,,,60,52,112,,,,,,,
100024661,2021-11-14 10:00,1.0,,,,91,90,181,,,,,,,
100024661,2021-11-14 11:00,1.0,,,,87,91,178,,,,,,,
100024661,2021-11-14 12:00,1.0,,,,114,121,235,,,,,,,
100024661,2021-11-14 13:00,1.0,,,,161,153,314,,,,,,,
100024661,2021-11-14 14:00,1.0,,,,156,158,314,,,,,,,
100024661,2021-11-14 15:00,1.0,,,,159,116,275,,,,,,,
100024661,2021-11-14 16:00,1.0,,,,160,118,278,,,,,,,
100024661,2021-11-14 17:00,1.0,,,,164,144,308,,,,,,,
100024661,2021-11-14 18:00,1.0,,,,141,117,258,,,,,,,
100024661,2021-11-14 19:00,1.0,,,,95,92,187,,,,,,,
100024661,2021-11-14 20:00,1.0,,,,88,70,158,,,,,,,
100024661,2021-11-14 21:00,1.0,,,,73,69,142,,,,,,,
100024661,2021-11-14 22:00,1.0,,,,72,56,128,,,,,,,
100024661,2021-11-14 23:00,1.0,,,,21,41,62,,,,,,,
100024661,2021-11-15 00:00,1.0,,,,19,20,39,,,,,,,
100024661,2021-11-15 01:00,1.0,,,,6,7,13,,,,,,,
100024661,2021-11-15 02:00,1.0,,,,7,3,10,,,,,,,
100024661,2021-11-15 03:00,1.0,,,,5,8,13,,,,,,,
100024661,2021-11-15 04:00,1.0,,,,7,5,12,,,,,,,
100024661,2021-11-15 05:00,1.0,,,,11,24,35,,,,,,,
100024661,2021-11-15 06:00,1.0,,,,43,87,130,,,,,,,
100024661,2021-11-15 07:00,1.0,,,,150,232,382,,,,,,,
100024661,2021-11-15 08:00,1.0,,,,327,557,884,,,,,,,
100024661,2021-11-15 09:00,1.0,,,,316,443,759,,,,,,,
100024661,2021-11-15 10:00,1.0,,,,161,172,333,,,,,,,
100024661,2021-11-15 11:00,1.0,,,,134,140,274,,,,,,,
100024661,2021-11-15 12:00,1.0,,,,185,186,371,,,,,,,
100024661,2021-11-15 13:00,1.0,,,,177,206,383,,,,,,,
100024661,2021-11-15 14:00,1.0,,,,219,198,417,,,,,,,
100024661,2021-11-15 15:00,1.0,,,,331,216,547,,,,,,,
100024661,2021-11-15 16:00,1.0,,,,323,238,561,,,,,,,
100024661,2021-11-15 17:00,1.0,,,,432,347,779,,,,,,,
100024661,2021-11-15 18:00,1.0,,,,497,350,847,,,,,,,
100024661,2021-11-15 19:00,1.0,,,,309,267,576,,,,,,,
100024661,2021-11-15 20:00,1.0,,,,169,148,317,,,,,,,
100024661,2021-11-15 21:00,1.0,,,,130,117,247,,,,,,,
100024661,2021-11-15 22:00,1.0,,,,87,101,188,,,,,,,
100024661,2021-11-15 23:00,1.0,,,,50,64,114,,,,,,,
100024661,2021-11-16 00:00,1.0,,,,22,25,47,,,,,,,
100024661,2021-11-16 01:00,1.0,,,,20,13,33,,,,,,,
100024661,2021-11-16 02:00,1.0,,,,8,9,17,,,,,,,
100024661,2021-11-16 03:00,1.0,,,,2,7,9,,,,,,,
100024661,2021-11-16 04:00,1.0,,,,7,8,15,,,,,,,
100024661,2021-11-16 05:00,1.0,,,,19,28,47,,,,,,,
100024661,2021-11-16 06:00,1.0,,,,52,87,139,,,,,,,
100024661,2021-11-16 07:00,1.0,,,,169,237,406,,,,,,,
100024661,2021-11-16 08:00,1.0,,,,327,603,930,,,,,,,
100024661,2021-11-16 09:00,1.0,,,,288,501,789,,,,,,,
100024661,2021-11-16 10:00,1.0,,,,171,189,360,,,,,,,
100024661,2021-11-16 11:00,1.0,,,,177,175,352,,,,,,,
100024661,2021-11-16 12:00,1.0,,,,194,180,374,,,,,,,
100024661,2021-11-16 13:00,1.0,,,,238,205,443,,,,,,,
100024661,2021-11-16 14:00,1.0,,,,268,221,489,,,,,,,
100024661,2021-11-16 15:00,1.0,,,,334,252,586,,,,,,,
100024661,2021-11-16 16:00,1.0,,,,370,273,643,,,,,,,
100024661,2021-11-16 17:00,1.0,,,,462,325,787,,,,,,,
100024661,2021-11-16 18:00,1.0,,,,556,367,923,,,,,,,
100024661,2021-11-16 19:00,1.0,,,,383,292,675,,,,,,,
100024661,2021-11-16 20:00,1.0,,,,194,173,367,,,,,,,
100024661,2021-11-16 21:00,1.0,,,,128,119,247,,,,,,,
100024661,2021-11-16 22:00,1.0,,,,118,99,217,,,,,,,
100024661,2021-11-16 23:00,1.0,,,,75,63,138,,,,,,,
100024661,2021-11-17 00:00,1.0,,,,43,37,80,,,,,,,
100024661,2021-11-17 01:00,1.0,,,,19,17,36,,,,,,,
100024661,2021-11-17 02:00,1.0,,,,11,4,15,,,,,,,
100024661,2021-11-17 03:00,1.0,,,,6,5,11,,,,,,,
100024661,2021-11-17 04:00,1.0,,,,6,7,13,,,,,,,
100024661,2021-11-17 05:00,1.0,,,,9,29,38,,,,,,,
100024661,2021-11-17 06:00,1.0,,,,55,82,137,,,,,,,
100024661,2021-11-17 07:00,1.0,,,,148,222,370,,,,,,,
100024661,2021-11-17 08:00,1.0,,,,325,554,879,,,,,,,
100024661,2021-11-17 09:00,1.0,,,,330,381,711,,,,,,,
100024661,2021-11-17 10:00,1.0,,,,176,221,397,,,,,,,
100024661,2021-11-17 11:00,1.0,,,,149,156,305,,,,,,,
100024661,2021-11-17 12:00,1.0,,,,197,191,388,,,,,,,
100024661,2021-11-17 13:00,1.0,,,,195,189,384,,,,,,,
100024661,2021-11-17 14:00,1.0,,,,217,210,427,,,,,,,
100024661,2021-11-17 15:00,1.0,,,,306,211,517,,,,,,,
100024661,2021-11-17 16:00,1.0,,,,363,246,609,,,,,,,
100024661,2021-11-17 17:00,1.0,,,,392,284,676,,,,,,,
100024661,2021-11-17 18:00,1.0,,,,501,371,872,,,,,,,
100024661,2021-11-17 19:00,1.0,,,,355,263,618,,,,,,,
100024661,2021-11-17 20:00,1.0,,,,200,159,359,,,,,,,
100024661,2021-11-17 21:00,1.0,,,,121,116,237,,,,,,,
100024661,2021-11-17 22:00,1.0,,,,128,108,236,,,,,,,
100024661,2021-11-17 23:00,1.0,,,,81,77,158,,,,,,,
100024661,2021-11-18 00:00,1.0,,,,34,64,98,,,,,,,
100024661,2021-11-18 01:00,1.0,,,,14,9,23,,,,,,,
100024661,2021-11-18 02:00,1.0,,,,15,7,22,,,,,,,
100024661,2021-11-18 03:00,1.0,,,,2,5,7,,,,,,,
100024661,2021-11-18 04:00,1.0,,,,9,5,14,,,,,,,
100024661,2021-11-18 05:00,1.0,,,,11,29,40,,,,,,,
100024661,2021-11-18 06:00,1.0,,,,51,90,141,,,,,,,
100024661,2021-11-18 07:00,1.0,,,,126,217,343,,,,,,,
100024661,2021-11-18 08:00,1.0,,,,299,506,805,,,,,,,
100024661,2021-11-18 09:00,1.0,,,,283,404,687,,,,,,,
100024661,2021-11-18 10:00,1.0,,,,147,179,326,,,,,,,
100024661,2021-11-18 11:00,1.0,,,,157,193,350,,,,,,,
100024661,2021-11-18 12:00,1.0,,,,209,197,406,,,,,,,
100024661,2021-11-18 13:00,1.0,,,,222,203,425,,,,,,,
100024661,2021-11-18 14:00,1.0,,,,249,206,455,,,,,,,
100024661,2021-11-18 15:00,1.0,,,,291,251,542,,,,,,,
100024661,2021-11-18 16:00,1.0,,,,319,208,527,,,,,,,
100024661,2021-11-18 17:00,1.0,,,,370,243,613,,,,,,,
100024661,2021-11-18 18:00,1.0,,,,402,275,677,,,,,,,
100024661,2021-11-18 19:00,1.0,,,,242,176,418,,,,,,,
100024661,2021-11-18 20:00,1.0,,,,145,108,253,,,,,,,
100024661,2021-11-18 21:00,1.0,,,,105,104,209,,,,,,,
100024661,2021-11-18 22:00,1.0,,,,95,71,166,,,,,,,
100024661,2021-11-18 23:00,1.0,,,,55,53,108,,,,,,,
100024661,2021-11-19 00:00,1.0,,,,27,35,62,,,,,,,
100024661,2021-11-19 01:00,1.0,,,,23,21,44,,,,,,,
100024661,2021-11-19 02:00,1.0,,,,19,8,27,,,,,,,
100024661,2021-11-19 03:00,1.0,,,,10,5,15,,,,,,,
100024661,2021-11-19 04:00,1.0,,,,9,10,19,,,,,,,
100024661,2021-11-19 05:00,1.0,,,,16,17,33,,,,,,,
100024661,2021-11-19 06:00,1.0,,,,46,71,117,,,,,,,
100024661,2021-11-19 07:00,1.0,,,,117,151,268,,,,,,,
100024661,2021-11-19 08:00,1.0,,,,193,397,590,,,,,,,
100024661,2021-11-19 09:00,1.0,,,,248,287,535,,,,,,,
100024661,2021-11-19 10:00,1.0,,,,179,193,372,,,,,,,
100024661,2021-11-19 11:00,1.0,,,,139,171,310,,,,,,,
100024661,2021-11-19 12:00,1.0,,,,199,188,387,,,,,,,
100024661,2021-11-19 13:00,1.0,,,,237,180,417,,,,,,,
100024661,2021-11-19 14:00,1.0,,,,254,214,468,,,,,,,
100024661,2021-11-19 15:00,1.0,,,,287,258,545,,,,,,,
100024661,2021-11-19 16:00,1.0,,,,289,255,544,,,,,,,
100024661,2021-11-19 17:00,1.0,,,,344,241,585,,,,,,,